FW0794 Weather Reports


time (UTC)temp
F
wind
direction
speed
knots
gust
knots
rain 1hr
in
rain 24hr
in
rain mn
in
humidity
%
barometer
mb
20260503193118 62 146 0.0 0.0 0.00 0.00 0.01 76 974.8
20260503191616 62 139 0.0 0.0 0.00 0.00 0.01 77 974.8
20260503184605 62 161 0.0 0.0 0.00 0.00 0.01 77 974.8
20260503183053 61 126 0.0 0.0 0.00 0.00 0.01 77 974.8
20260503181553 60 156 0.0 0.0 0.00 0.00 0.01 78 974.8
20260503180057 59 198 0.0 0.0 0.00 0.00 0.01 80 974.8
20260503174552 59 256 0.0 0.0 0.00 0.00 0.01 79 974.8
20260503173044 59 241 0.0 0.0 0.00 0.00 0.01 80 974.8
20260503171542 59 209 0.0 0.0 0.00 0.00 0.01 80 974.8
20260503110104 55 91 0.0 0.0 0.00 0.00 0.00 85 974.8
20260503100105 56 91 0.0 0.0 0.00 0.00 0.00 83 974.8
20260503081551 56 78 0.0 0.0 0.00 0.00 0.00 80 974.8
20260503071554 57 78 0.0 0.0 0.00 0.00 0.00 78 974.8
20260503054603 58 82 0.0 0.0 0.00 0.00 0.00 77 974.8
20260503053042 58 87 0.0 0.0 0.00 0.00 0.00 77 974.8
20260503051542 58 100 0.0 0.0 0.00 0.00 0.00 77 974.8
20260503050040 58 69 0.0 0.0 0.00 0.00 0.00 77 974.8
20260503044545 58 50 0.0 0.0 0.00 0.00 0.00 77 974.8
20260503043051 58 67 0.0 0.0 0.00 0.00 0.00 77 974.8
20260503041540 59 75 0.0 0.0 0.00 0.00 0.00 78 974.8
20260503040039 58 89 0.0 0.0 0.00 0.00 0.00 78 974.8
20260503034545 59 88 0.0 0.0 0.00 0.00 0.00 78 974.8
20260503033041 59 92 0.0 0.0 0.00 0.00 0.00 78 974.8
20260503031538 58 78 0.0 0.0 0.00 0.00 0.00 77 974.8
20260503030038 59 176 0.0 0.0 0.00 0.00 0.00 76 974.8
20260503024538 59 232 0.0 0.0 0.00 0.00 0.00 76 974.8
20260503023038 59 222 0.0 0.0 0.00 0.00 0.00 76 974.8
20260503021536 60 268 0.0 0.0 0.00 0.00 0.00 75 974.8
20260503020036 60 261 0.0 0.0 0.00 0.00 0.00 74 974.8
20260503014535 60 240 0.0 0.0 0.00 0.00 0.00 74 974.8
20260503013040 61 261 0.0 0.0 0.00 0.00 0.00 72 974.8
20260503011536 61 274 0.0 0.0 0.00 0.00 0.00 72 974.8
20260503010035 61 252 0.0 0.0 0.00 0.00 0.00 72 974.8
20260503004536 62 333 0.0 0.0 0.00 0.00 0.00 71 974.8
20260503003043 63 292 0.0 0.0 0.00 0.00 0.00 70 974.8
20260503001540 63 264 0.0 0.0 0.00 0.00 0.00 69 974.8
20260503000036 64 281 0.0 0.0 0.00 0.00 0.00 69 974.8
20260502234540 63 294 0.0 0.0 0.00 0.00 0.00 69 974.8
20260502233038 63 237 0.0 0.0 0.00 0.00 0.00 69 974.8
20260502231528 63 267 0.0 0.0 0.00 0.00 0.00 69 974.8
20260502230033 64 288 0.0 0.0 0.00 0.00 0.00 69 974.8
20260502224527 64 322 0.0 0.0 0.00 0.00 0.00 71 974.8
20260502223037 63 219 0.0 0.0 0.00 0.00 0.00 72 974.8
20260502221523 63 265 0.0 0.0 0.00 0.00 0.00 72 974.8
20260502220023 62 279 0.0 0.0 0.00 0.00 0.00 74 974.8
20260502214519 62 278 0.0 0.0 0.00 0.00 0.00 74 974.8
20260502213017 61 221 0.0 0.0 0.00 0.00 0.00 76 974.8
20260502211516 61 251 0.0 0.0 0.00 0.00 0.00 78 974.8
20260502210014 60 277 0.0 0.0 0.00 0.00 0.00 80 974.8
20260502204512 60 273 0.0 0.0 0.00 0.00 0.00 80 974.8
20260502203009 60 269 0.0 0.0 0.00 0.00 0.00 81 974.8
20260502201505 59 242 0.0 0.0 0.00 0.00 0.00 81 974.8
20260502200004 59 272 0.0 0.0 0.00 0.00 0.00 82 974.8
20260502194509 59 281 0.0 0.0 0.00 0.00 0.00 82 974.8